GW1972 Weather Reports


time (UTC)temp
C
wind
direction
speed
KPH
gust
KPH
rain 1hr
cm
rain 24hr
cm
rain mn
cm
humidity
%
barometer
mb
20260503213427 17 257 9.7 27.4 0.00 0.30 0.30 48 984.3
20260503211929 17 128 8.0 29.0 0.00 0.30 0.30 47 984.6
20260503211426 17 80 6.4 22.5 0.00 0.30 0.30 49 984.7
20260503210928 17 96 9.7 30.6 0.00 0.30 0.30 46 984.8
20260503205926 18 59 9.7 30.6 0.00 0.30 0.30 45 984.9
20260503204928 17 20 12.9 30.6 0.00 0.30 0.30 48 984.9
20260503203927 17 30 16.1 30.6 0.00 0.30 0.30 47 985.1
20260503203426 16 69 12.9 33.8 0.00 0.30 0.30 48 985.0
20260503202927 16 283 19.3 33.8 0.00 0.30 0.30 46 985.1
20260503202426 17 49 14.5 32.2 0.00 0.30 0.30 47 985.0
20260503201927 17 99 12.9 29.0 0.00 0.30 0.30 48 984.9
20260503201426 17 76 14.5 29.0 0.00 0.30 0.30 48 985.2
20260503200927 17 55 14.5 29.0 0.00 0.30 0.30 49 985.2
20260503200424 17 337 12.9 29.0 0.00 0.30 0.30 53 985.3
20260503195425 16 93 11.3 27.4 0.00 0.30 0.30 55 985.4
20260503194925 16 52 6.4 20.9 0.00 0.30 0.30 62 985.6
20260503194425 15 313 9.7 20.9 0.00 0.30 0.30 65 985.8
20260503193926 15 94 8.0 17.7 0.00 0.30 0.30 68 985.9
20260503193424 14 55 8.0 20.9 0.00 0.30 0.30 69 986.0
20260503192925 13 25 6.4 20.9 0.03 0.30 0.30 70 986.0
20260503191925 12 24 8.0 19.3 0.08 0.30 0.30 73 986.4
20260503190926 12 250 6.4 17.7 0.13 0.30 0.30 80 986.6
20260503190423 11 185 1.6 17.7 0.15 0.30 0.30 82 986.7
20260503185925 11 168 3.2 14.5 0.18 0.30 0.30 85 986.8
20260503185424 10 333 6.4 14.5 0.18 0.30 0.30 87 986.9
20260503184925 9 30 3.2 11.3 0.18 0.30 0.30 87 987.0
20260503184424 9 28 3.2 11.3 0.18 0.30 0.30 87 987.1
20260503183424 9 309 3.2 11.3 0.20 0.30 0.30 87 987.2
20260503182924 9 281 4.8 11.3 0.18 0.28 0.28 86 987.7
20260503181925 9 158 1.6 9.7 0.13 0.23 0.23 85 988.6
20260503181423 9 326 1.6 14.5 0.13 0.20 0.20 85 989.0
20260503180924 9 86 1.6 14.5 0.10 0.18 0.18 85 989.3
20260503175924 9 162 3.2 9.7 0.08 0.13 0.13 87 989.4
20260503175422 9 116 3.2 20.9 0.10 0.13 0.13 89 989.4
20260503174922 9 52 1.6 20.9 0.10 0.13 0.13 91 989.5
20260503174423 8 123 3.2 9.7 0.13 0.13 0.13 92 989.6
20260503173924 8 111 3.2 11.3 0.13 0.13 0.13 92 989.6
20260503171923 8 97 3.2 14.5 0.10 0.10 0.10 92 989.9
20260503171421 8 159 1.6 17.7 0.08 0.08 0.08 91 990.0
20260503170922 8 51 4.8 17.7 0.08 0.08 0.08 90 990.1
20260503170421 8 152 8.0 17.7 0.05 0.05 0.05 88 990.1
20260503131259 -17 0.0 0.0 0.00 0.00 0.00
20260503130258 -17 0.0 0.0 0.00 0.00 0.00
20260503110244 -17 0.0 0.0 0.00 0.00 0.00
20260503100232 -17 0.0 0.0 0.00 0.00 0.00
20260503090231 -17 0.0 0.0 0.00 0.00 0.00
20260503080731 -17 0.0 0.0 0.00 0.00 0.00
20260503080231 -17 0.0 0.0 0.00 0.00 0.00
20260503072729 -17 0.0 0.0 0.00 0.00 0.00
20260503072229 -17 0.0 0.0 0.00 0.00 0.00
20260503071728 -17 0.0 0.0 0.00 0.00 0.00
20260503071228 -17 0.0 0.0 0.00 0.00 0.00
20260503070728 -17 0.0 0.0 0.00 0.00 0.00
20260503070229 -17 0.0 0.0 0.00 0.00 0.00
20260503060216 -17 0.0 0.0 0.00 0.00 0.00
20260503054718 -17 0.0 0.0 0.00 0.00 0.00
20260503053216 -17 0.0 0.0 0.00 0.00 0.00
20260503052717 -17 0.0 0.0 0.00 0.00 0.00
20260503052216 -17 0.0 0.0 0.00 0.00 0.00
20260503051718 -17 0.0 0.0 0.00 0.00 0.00
20260503051217 -17 0.0 0.0 0.00 0.00 0.00
20260503050717 -17 0.0 0.0 0.00 0.00 0.00
20260503050216 -17 0.0 0.0 0.00 0.00 0.00
20260503045718 -17 0.0 0.0 0.00 0.00 0.00
20260503045218 -17 0.0 0.0 0.00 0.00 0.00
20260503044717 -17 0.0 0.0 0.00 0.00 0.00
20260503044216 -17 0.0 0.0 0.00 0.00 0.00
20260503043718 -17 0.0 0.0 0.00 0.00 0.00
20260503043217 -17 0.0 0.0 0.00 0.00 0.00
20260503042717 -17 0.0 0.0 0.00 0.00 0.00
20260503042216 -17 0.0 0.0 0.00 0.00 0.00
20260503041216 -17 0.0 0.0 0.00 0.00 0.00
20260503040718 -17 0.0 0.0 0.00 0.00 0.00
20260503040217 -17 0.0 0.0 0.00 0.00 0.00
20260503035718 -17 0.0 0.0 0.00 0.00 0.00
20260503035216 -17 0.0 0.0 0.00 0.00 0.00
20260503034717 -17 0.0 0.0 0.00 0.00 0.00
20260503033718 -17 0.0 0.0 0.00 0.00 0.00
20260503032719 -17 0.0 0.0 0.00 0.00 0.00
20260503032217 -17 0.0 0.0 0.00 0.00 0.00
20260503030216 -17 0.0 0.0 0.00 0.00 0.00
20260503025718 -17 0.0 0.0 0.00 0.00 0.00
20260503025217 -17 0.0 0.0 0.00 0.00 0.00
20260503024216 -17 0.0 0.0 0.00 0.00 0.00
20260503023718 -17 0.0 0.0 0.00 0.00 0.00
20260503023217 -17 0.0 0.0 0.00 0.00 0.00
20260503022718 -17 0.0 0.0 0.00 0.00 0.00
20260503022217 -17 0.0 0.0 0.00 0.00 0.00
20260503021216 -17 0.0 0.0 0.00 0.00 0.00
20260503020718 -17 0.0 0.0 0.00 0.00 0.00
20260503020217 -17 0.0 0.0 0.00 0.00 0.00
20260503015718 -17 0.0 0.0 0.00 0.00 0.00
20260503015216 -17 0.0 0.0 0.00 0.00 0.00
20260503014217 -17 0.0 0.0 0.00 0.00 0.00
20260503013718 -17 0.0 0.0 0.00 0.00 0.00
20260503013216 -17 0.0 0.0 0.00 0.00 0.00
20260503012217 -17 0.0 0.0 0.00 0.00 0.00
20260503011717 -17 0.0 0.0 0.00 0.00 0.00
20260503011216 -17 0.0 0.0 0.00 0.00 0.00
20260503010718 10 128 0.0 0.0 0.00 0.00 0.00 49 992.4
20260503010217 10 128 0.0 0.0 0.00 0.00 0.00 49 992.4
20260503005712 10 128 0.0 1.6 0.00 0.00 0.00 48 992.5
20260503005211 10 128 0.0 1.6 0.00 0.00 0.00 47 992.5
20260503004712 10 128 0.0 1.6 0.00 0.00 0.00 46 992.5
20260503003712 11 110 0.0 11.3 0.00 0.00 0.00 44 992.5
20260503003212 11 168 3.2 11.3 0.00 0.00 0.00 44 992.5
20260503002711 11 137 0.0 4.8 0.00 0.00 0.00 44 992.5
20260503002210 12 147 0.0 4.8 0.00 0.00 0.00 42 992.5
20260503001712 12 147 1.6 4.8 0.00 0.00 0.00 41 992.5
20260503001210 13 152 0.0 4.8 0.00 0.00 0.00 40 992.5
20260503000711 13 123 0.0 3.2 0.00 0.00 0.00 40 992.5
20260503000211 13 102 1.6 3.2 0.00 0.00 0.00 39 992.5
20260502235210 13 116 0.0 4.8 0.00 0.00 0.00 39 992.5
20260502234209 12 131 0.0 3.2 0.00 0.00 0.00 39 992.6
20260502233707 12 148 0.0 3.2 0.00 0.00 0.00 41 992.6
20260502232704 12 148 0.0 8.0 0.00 0.00 0.00 42 992.8
20260502232203 12 179 3.2 9.7 0.00 0.00 0.00 41 992.8
20260502231204 12 171 0.0 3.2 0.00 0.00 0.00 41 992.8
20260502230704 12 116 0.0 3.2 0.00 0.00 0.00 40 992.8
20260502230204 12 116 0.0 3.2 0.00 0.00 0.00 41 992.8
20260502225704 12 114 0.0 3.2 0.00 0.00 0.00 40 992.8
20260502225203 12 145 1.6 6.4 0.00 0.00 0.00 40 992.8
20260502224703 12 154 0.0 11.3 0.00 0.00 0.00 39 992.8
20260502224204 12 164 6.4 11.3 0.00 0.00 0.00 39 992.8
20260502223704 12 131 3.2 6.4 0.00 0.00 0.00 40 992.9
20260502223202 12 172 0.0 6.4 0.00 0.00 0.00 40 992.9
20260502222703 12 147 1.6 8.0 0.00 0.00 0.00 41 992.8
20260502222203 12 120 3.2 9.7 0.00 0.00 0.00 38 992.9
20260502221203 12 134 1.6 4.8 0.00 0.00 0.00 38 992.9
20260502220704 13 140 0.0 6.4 0.00 0.00 0.00 37 992.9
20260502220202 13 65 1.6 14.5 0.00 0.00 0.00 37 992.9
20260502215704 13 133 3.2 14.5 0.00 0.00 0.00 37 992.9
20260502215202 13 166 1.6 8.0 0.00 0.00 0.00 36 993.0
20260502214704 13 140 3.2 9.7 0.00 0.00 0.00 37 993.0
20260502214203 13 120 1.6 11.3 0.00 0.00 0.00 38 993.0
20260502213704 13 117 3.2 11.3 0.00 0.00 0.00 38 993.1